| time (UTC) | temp F | wind direction | speed MPH | gust MPH | rain 1hr in | rain 24hr in | rain mn in | humidity % | barometer mb |
| 20260507040059 | 57 | 0 | 0.0 | 0.0 | 0.00 | 0.00 | 0.00 | 82 | 1024.9 |
| 20260507034558 | 58 | 0 | 0.0 | 4.0 | 0.00 | 0.00 | 0.00 | 80 | 1024.6 |
| 20260507033058 | 58 | 0 | 2.0 | 4.0 | 0.00 | 0.00 | 0.00 | 80 | 1024.4 |
| 20260507031601 | 58 | 274 | 1.0 | 5.0 | 0.00 | 0.00 | 0.00 | 80 | 1024.2 |
| 20260507030101 | 59 | 0 | 1.0 | 4.0 | 0.00 | 0.00 | 0.00 | 81 | 1024.1 |
| 20260507024632 | 60 | 337 | 0.0 | 3.0 | 0.00 | 0.00 | 0.00 | 79 | 1024.0 |
| 20260507023101 | 60 | 301 | 1.0 | 4.0 | 0.00 | 0.00 | 0.00 | 79 | 1023.8 |
| 20260507021601 | 61 | 0 | 0.0 | 3.0 | 0.00 | 0.00 | 0.00 | 80 | 1023.7 |
| 20260507020111 | 62 | 0 | 0.0 | 1.0 | 0.00 | 0.00 | 0.00 | 76 | 1023.9 |
| 20260507014608 | 62 | 0 | 0.0 | 5.0 | 0.00 | 0.00 | 0.00 | 77 | 1023.9 |
| 20260507013101 | 63 | 0 | 0.0 | 3.0 | 0.00 | 0.00 | 0.00 | 74 | 1023.8 |
| 20260507011604 | 64 | 238 | 0.0 | 4.0 | 0.00 | 0.00 | 0.00 | 76 | 1024.0 |
| 20260507010059 | 65 | 36 | 2.0 | 7.0 | 0.00 | 0.00 | 0.00 | 71 | 1023.9 |
| 20260507004600 | 65 | 0 | 1.0 | 7.0 | 0.00 | 0.00 | 0.00 | 74 | 1023.7 |
| 20260507003101 | 65 | 30 | 1.0 | 8.0 | 0.00 | 0.00 | 0.00 | 71 | 1023.7 |
| 20260507001601 | 67 | 0 | 2.0 | 9.0 | 0.00 | 0.00 | 0.00 | 69 | 1023.7 |
| 20260507000058 | 67 | 68 | 0.0 | 4.0 | 0.00 | 0.00 | 0.00 | 73 | 1023.7 |
| 20260506234609 | 66 | 0 | 0.0 | 2.0 | 0.00 | 0.00 | 0.00 | 77 | 1023.7 |
| 20260506233101 | 66 | 0 | 0.0 | 2.0 | 0.00 | 0.00 | 0.00 | 75 | 1023.9 |
| 20260506231602 | 66 | 0 | 1.0 | 4.0 | 0.00 | 0.00 | 0.00 | 75 | 1023.8 |
| 20260506224601 | 66 | 0 | 1.0 | 4.0 | 0.00 | 0.00 | 0.00 | 75 | 1024.0 |
| 20260506223101 | 67 | 167 | 0.0 | 3.0 | 0.00 | 0.00 | 0.00 | 75 | 1024.1 |
| 20260506221601 | 66 | 120 | 0.0 | 3.0 | 0.00 | 0.00 | 0.00 | 77 | 1024.1 |
| 20260506220059 | 66 | 140 | 1.0 | 4.0 | 0.00 | 0.00 | 0.00 | 74 | 1024.1 |
| 20260506214558 | 66 | 111 | 1.0 | 4.0 | 0.00 | 0.00 | 0.00 | 77 | 1024.0 |
| 20260506213131 | 66 | 94 | 0.0 | 3.0 | 0.00 | 0.00 | 0.00 | 79 | 1023.9 |
| 20260506211620 | 66 | 89 | 2.0 | 11.0 | 0.00 | 0.00 | 0.00 | 77 | 1024.1 |
| 20260506210103 | 66 | 75 | 2.0 | 5.0 | 0.00 | 0.00 | 0.00 | 79 | 1024.2 |
| 20260506204600 | 65 | 96 | 1.0 | 4.0 | 0.00 | 0.00 | 0.00 | 79 | 1024.3 |
| 20260506203103 | 65 | 103 | 2.0 | 5.0 | 0.00 | 0.00 | 0.00 | 77 | 1024.4 |
| 20260506201609 | 65 | 89 | 2.0 | 6.0 | 0.00 | 0.00 | 0.00 | 79 | 1024.2 |
| 20260506194619 | 64 | 65 | 2.0 | 4.0 | 0.00 | 0.00 | 0.00 | 83 | 1024.5 |
| 20260506193058 | 62 | 126 | 2.0 | 4.0 | 0.00 | 0.00 | 0.00 | 83 | 1024.4 |
| 20260506191600 | 64 | 78 | 2.0 | 6.0 | 0.00 | 0.00 | 0.00 | 80 | 1024.5 |
| 20260506190103 | 63 | 66 | 2.0 | 6.0 | 0.00 | 0.00 | 0.00 | 81 | 1024.6 |
| 20260506184609 | 63 | 76 | 2.0 | 7.0 | 0.00 | 0.00 | 0.00 | 81 | 1024.4 |
| 20260506183105 | 62 | 75 | 2.0 | 6.0 | 0.00 | 0.00 | 0.00 | 84 | 1024.5 |
| 20260506181601 | 62 | 53 | 2.0 | 9.0 | 0.00 | 0.00 | 0.00 | 86 | 1024.3 |
| 20260506174601 | 60 | 77 | 1.0 | 3.0 | 0.00 | 0.00 | 0.00 | 88 | 1024.7 |
| 20260506173109 | 58 | 64 | 1.0 | 3.0 | 0.00 | 0.00 | 0.00 | 90 | 1024.6 |
| 20260506171559 | 58 | 76 | 0.0 | 3.0 | 0.00 | 0.00 | 0.00 | 91 | 1024.3 |
| 20260506170114 | 57 | 0 | 2.0 | 3.0 | 0.00 | 0.00 | 0.00 | 91 | 1024.3 |
| 20260506164602 | 57 | 84 | 1.0 | 4.0 | 0.00 | 0.00 | 0.00 | 93 | 1024.6 |
| 20260506163112 | 56 | 74 | 0.0 | 2.0 | 0.00 | 0.00 | 0.00 | 93 | 1024.6 |
| 20260506161600 | 56 | 0 | 0.0 | 2.0 | 0.00 | 0.00 | 0.00 | 94 | 1024.6 |
| 20260506160109 | 55 | 0 | 0.0 | 4.0 | 0.00 | 0.00 | 0.00 | 94 | 1024.5 |
| 20260506154604 | 55 | 0 | 0.0 | 0.0 | 0.00 | 0.00 | 0.00 | 94 | 1024.4 |
| 20260506153057 | 55 | 0 | 0.0 | 0.0 | 0.00 | 0.00 | 0.00 | 95 | 1024.1 |
| 20260506151607 | 55 | 0 | 1.0 | 4.0 | 0.00 | 0.00 | 0.00 | 95 | 1024.1 |
| 20260506150101 | 55 | 0 | 0.0 | 0.0 | 0.00 | 0.00 | 0.00 | 96 | 1024.4 |
| 20260506144608 | 54 | 0 | 0.0 | 1.0 | 0.00 | 0.00 | 0.00 | 96 | 1024.4 |
| 20260506143109 | 54 | 0 | 0.0 | 0.0 | 0.00 | 0.00 | 0.00 | 96 | 1024.4 |
| 20260506141559 | 53 | 0 | 0.0 | 0.0 | 0.00 | 0.00 | 0.00 | 97 | 1024.3 |
| 20260506140106 | 53 | 0 | 0.0 | 0.0 | 0.00 | 0.00 | 0.00 | 97 | 1023.7 |
| 20260506134600 | 53 | 0 | 0.0 | 0.0 | 0.00 | 0.00 | 0.00 | 97 | 1023.6 |
| 20260506133103 | 52 | 0 | 0.0 | 0.0 | 0.00 | 0.00 | 0.00 | 97 | 1023.6 |
| 20260506131558 | 53 | 0 | 0.0 | 0.0 | 0.00 | 0.00 | 0.00 | 97 | 1023.5 |
| 20260506124602 | 53 | 0 | 0.0 | 0.0 | 0.00 | 0.00 | 0.00 | 97 | 1023.0 |
| 20260506123100 | 54 | 0 | 0.0 | 0.0 | 0.00 | 0.00 | 0.00 | 96 | 1023.0 |
| 20260506121559 | 54 | 0 | 0.0 | 0.0 | 0.00 | 0.00 | 0.00 | 96 | 1022.9 |
| 20260506120100 | 55 | 0 | 0.0 | 0.0 | 0.00 | 0.00 | 0.00 | 96 | 1022.9 |
| 20260506114557 | 55 | 0 | 0.0 | 0.0 | 0.00 | 0.00 | 0.00 | 96 | 1023.0 |
| 20260506113059 | 55 | 0 | 0.0 | 0.0 | 0.00 | 0.00 | 0.00 | 96 | 1022.7 |
| 20260506111603 | 55 | 0 | 0.0 | 0.0 | 0.00 | 0.00 | 0.00 | 95 | 1022.6 |
| 20260506110100 | 55 | 0 | 0.0 | 0.0 | 0.00 | 0.00 | 0.00 | 95 | 1022.5 |
| 20260506104602 | 55 | 0 | 0.0 | 0.0 | 0.00 | 0.00 | 0.00 | 95 | 1022.3 |
| 20260506103129 | 55 | 0 | 0.0 | 0.0 | 0.00 | 0.00 | 0.00 | 95 | 1022.0 |
| 20260506101611 | 55 | 0 | 0.0 | 0.0 | 0.00 | 0.00 | 0.00 | 95 | 1022.0 |
| 20260506100110 | 55 | 0 | 0.0 | 0.0 | 0.00 | 0.00 | 0.00 | 95 | 1021.9 |
| 20260506094607 | 55 | 0 | 0.0 | 0.0 | 0.00 | 0.00 | 0.00 | 95 | 1021.7 |
| 20260506093107 | 55 | 0 | 0.0 | 0.0 | 0.00 | 0.00 | 0.00 | 95 | 1021.5 |
| 20260506090104 | 55 | 0 | 0.0 | 0.0 | 0.00 | 0.00 | 0.00 | 95 | 1021.6 |
| 20260506084617 | 55 | 0 | 0.0 | 0.0 | 0.00 | 0.00 | 0.00 | 94 | 1021.5 |
| 20260506083100 | 56 | 0 | 0.0 | 0.0 | 0.00 | 0.00 | 0.00 | 95 | 1021.2 |
| 20260506081607 | 56 | 0 | 0.0 | 0.0 | 0.00 | 0.00 | 0.00 | 95 | 1021.4 |
| 20260506073101 | 57 | 0 | 0.0 | 0.0 | 0.00 | 0.00 | 0.00 | 94 | 1021.2 |
| 20260506071559 | 58 | 0 | 0.0 | 0.0 | 0.00 | 0.00 | 0.00 | 93 | 1021.0 |
| 20260506061603 | 58 | 0 | 0.0 | 0.0 | 0.00 | 0.00 | 0.00 | 93 | 1020.9 |
| 20260506050110 | 59 | 0 | 0.0 | 0.0 | 0.00 | 0.00 | 0.00 | 92 | 1020.4 |
| 20260506044557 | 59 | 0 | 0.0 | 0.0 | 0.00 | 0.00 | 0.00 | 92 | 1020.4 |
| 20260506043110 | 59 | 0 | 0.0 | 0.0 | 0.00 | 0.00 | 0.00 | 91 | 1020.3 |
| 20260506041557 | 58 | 0 | 0.0 | 0.0 | 0.00 | 0.00 | 0.00 | 92 | 1020.0 |